EW5593 Weather Reports


time (UTC)temp
F
wind
direction
speed
knots
gust
knots
rain 1hr
in
rain 24hr
in
rain mn
in
humidity
%
barometer
mb
20260504034903 46 0 0.0 0.0 0.00 0.00 0.00 71 1018.4
20260504034704 46 0 0.0 0.0 0.00 0.00 0.00 70 1018.4
20260504034603 46 0 0.0 0.0 0.00 0.00 0.00 70 1018.4
20260504034504 46 0 0.0 0.0 0.00 0.00 0.00 70 1018.4
20260504034404 46 0 0.0 0.0 0.00 0.00 0.00 70 1018.4
20260504034204 46 0 0.0 0.0 0.00 0.00 0.00 69 1018.4
20260504033603 47 0 0.0 0.0 0.00 0.00 0.00 68 1018.2
20260504033503 47 0 0.0 0.0 0.00 0.00 0.00 67 1018.1
20260504033203 48 0 0.0 0.0 0.00 0.00 0.00 66 1018.2
20260504033103 48 0 0.0 0.0 0.00 0.00 0.00 65 1018.2
20260504033004 48 0 0.0 0.0 0.00 0.00 0.00 66 1018.3
20260504032804 48 0 0.0 0.0 0.00 0.00 0.00 64 1018.3
20260504032504 49 0 0.0 0.0 0.00 0.00 0.00 65 1018.3
20260504032304 48 0 0.0 0.0 0.00 0.00 0.00 64 1018.3
20260504032104 48 0 0.0 0.0 0.00 0.00 0.00 64 1018.4
20260504031903 48 0 0.0 0.0 0.00 0.00 0.00 64 1018.4
20260504031804 48 0 0.0 0.0 0.00 0.00 0.00 64 1018.4
20260504031704 48 0 0.0 0.0 0.00 0.00 0.00 64 1018.3
20260504031603 48 0 0.0 0.0 0.00 0.00 0.00 64 1018.3
20260504031403 48 0 0.0 0.0 0.00 0.00 0.00 64 1018.3
20260504031103 48 0 0.0 0.0 0.00 0.00 0.00 64 1018.3
20260504030703 48 0 0.0 0.0 0.00 0.00 0.00 64 1018.4
20260504030604 49 0 0.0 0.0 0.00 0.00 0.00 64 1018.4
20260504030503 49 0 0.0 0.0 0.00 0.00 0.00 63 1018.4
20260504030304 49 0 0.0 0.0 0.00 0.00 0.00 63 1018.4
20260504030003 49 0 0.0 0.0 0.00 0.00 0.00 63 1018.4
20260504025903 49 0 0.0 0.0 0.00 0.00 0.00 63 1018.4
20260504025804 49 0 0.0 0.0 0.00 0.00 0.00 63 1018.3
20260504025703 49 0 0.0 0.0 0.00 0.00 0.00 64 1018.3
20260504025403 49 0 0.0 0.0 0.00 0.00 0.00 64 1018.4
20260504025304 49 0 0.0 0.0 0.00 0.00 0.00 65 1018.4
20260504024904 49 0 0.0 0.0 0.00 0.00 0.00 65 1018.4
20260504024704 49 0 0.0 0.0 0.00 0.00 0.00 65 1018.4
20260504024504 49 0 0.0 0.0 0.00 0.00 0.00 64 1018.4
20260504024404 48 0 0.0 0.0 0.00 0.00 0.00 64 1018.4
20260504024303 48 0 0.0 0.0 0.00 0.00 0.00 65 1018.4
20260504024004 48 0 0.0 0.0 0.00 0.00 0.00 65 1018.5
20260504023804 48 0 0.0 0.0 0.00 0.00 0.00 66 1018.6
20260504023703 48 0 0.0 0.0 0.00 0.00 0.00 66 1018.6
20260504023204 48 0 0.0 0.0 0.00 0.00 0.00 64 1018.5
20260504022903 49 0 0.0 0.0 0.00 0.00 0.00 63 1018.5
20260504022504 49 0 0.0 0.0 0.00 0.00 0.00 63 1018.4
20260504022404 49 0 0.0 0.0 0.00 0.00 0.00 63 1018.4
20260504022204 49 0 0.0 0.0 0.00 0.00 0.00 62 1018.4
20260504022104 50 0 0.0 0.0 0.00 0.00 0.00 61 1018.3
20260504022003 50 0 0.0 0.0 0.00 0.00 0.00 61 1018.4
20260504021704 50 0 0.0 0.0 0.00 0.00 0.00 60 1018.3
20260504021304 50 0 0.0 0.0 0.00 0.00 0.00 60 1018.2
20260504021203 50 0 0.0 0.0 0.00 0.00 0.00 60 1018.2
20260504020903 50 0 0.0 0.0 0.00 0.00 0.00 60 1018.1
20260504020604 51 0 0.0 0.0 0.00 0.00 0.00 59 1018.2
20260504020504 51 0 0.0 0.0 0.00 0.00 0.00 59 1018.2
20260504020403 51 0 0.0 0.0 0.00 0.00 0.00 58 1018.1
20260504020303 51 0 0.0 0.0 0.00 0.00 0.00 58 1018.2
20260504020204 51 0 0.0 0.0 0.00 0.00 0.00 58 1018.1
20260504020104 51 0 0.0 0.0 0.00 0.00 0.00 59 1018.1
20260504015803 52 0 0.0 0.0 0.00 0.00 0.00 60 1018.1
20260504015704 52 0 0.0 0.0 0.00 0.00 0.00 59 1018.0
20260504015604 52 0 0.0 0.0 0.00 0.00 0.00 59 1018.0
20260504015304 52 0 0.0 0.0 0.00 0.00 0.00 58 1018.0
20260504015204 52 0 0.0 0.0 0.00 0.00 0.00 56 1017.9
20260504015003 52 0 0.0 0.0 0.00 0.00 0.00 57 1017.9
20260504014903 52 0 0.0 0.0 0.00 0.00 0.00 57 1018.0
20260504014704 52 0 0.0 0.0 0.00 0.00 0.00 57 1017.9
20260504014403 52 0 0.0 0.0 0.00 0.00 0.00 60 1017.9
20260504014304 52 0 0.0 0.0 0.00 0.00 0.00 59 1017.9
20260504013904 52 0 0.0 0.0 0.00 0.00 0.00 58 1018.0
20260504013804 52 0 0.0 0.0 0.00 0.00 0.00 58 1018.0
20260504013203 53 0 0.0 0.0 0.00 0.00 0.00 55 1017.8
20260504012903 53 0 0.0 0.0 0.00 0.00 0.00 56 1017.8
20260504012803 53 0 0.0 0.0 0.00 0.00 0.00 56 1017.8
20260504012704 53 0 0.0 0.0 0.00 0.00 0.00 56 1017.8
20260504012304 53 0 0.0 0.0 0.00 0.00 0.00 56 1017.9
20260504012204 53 0 0.0 0.0 0.00 0.00 0.00 56 1017.9
20260504012104 53 0 0.0 0.0 0.00 0.00 0.00 55 1017.9
20260504012004 53 0 0.0 0.0 0.00 0.00 0.00 58 1017.9
20260504011904 53 0 0.0 0.0 0.00 0.00 0.00 57 1017.8
20260504011403 53 0 0.0 0.0 0.00 0.00 0.00 54 1017.8
20260504011203 53 0 0.0 0.0 0.00 0.00 0.00 54 1017.7
20260504011103 53 0 0.0 0.0 0.00 0.00 0.00 55 1017.7
20260504010904 53 0 0.0 0.0 0.00 0.00 0.00 54 1017.7
20260504010803 54 0 0.0 0.0 0.00 0.00 0.00 54 1017.7
20260504010704 54 0 0.0 0.0 0.00 0.00 0.00 54 1017.7
20260504010604 54 0 0.0 0.0 0.00 0.00 0.00 53 1017.7
20260504010404 54 0 0.0 0.0 0.00 0.00 0.00 53 1017.6
20260504010304 54 0 0.0 0.0 0.00 0.00 0.00 53 1017.6
20260504010004 55 0 0.0 0.0 0.00 0.00 0.00 51 1017.5
20260504005704 54 0 0.0 0.0 0.00 0.00 0.00 53 1017.5
20260504005604 54 0 0.0 0.0 0.00 0.00 0.00 55 1017.5
20260504005104 54 0 0.0 0.0 0.00 0.00 0.00 55 1017.5
20260504005004 55 0 0.0 0.0 0.00 0.00 0.00 51 1017.5
20260504004904 55 0 0.0 0.0 0.00 0.00 0.00 51 1017.6
20260504004804 55 0 0.0 0.0 0.00 0.00 0.00 52 1017.5
20260504004603 55 0 0.0 0.0 0.00 0.00 0.00 51 1017.5
20260504004403 55 0 0.0 0.0 0.00 0.00 0.00 51 1017.5
20260504004204 55 0 0.0 0.0 0.00 0.00 0.00 52 1017.5
20260504004104 55 0 0.0 0.0 0.00 0.00 0.00 52 1017.4
20260504004004 55 0 0.0 0.0 0.00 0.00 0.00 52 1017.4
20260504003404 55 0 0.0 0.0 0.00 0.00 0.00 50 1017.3
20260504003303 55 258 0.0 0.9 0.00 0.00 0.00 51 1017.3
20260504003104 55 259 0.0 0.9 0.00 0.00 0.00 52 1017.3
20260504003004 56 259 0.0 0.9 0.00 0.00 0.00 50 1017.3
20260504002903 56 259 0.0 0.9 0.00 0.00 0.00 50 1017.3
20260504002604 56 258 0.9 2.6 0.00 0.00 0.00 50 1017.3
20260504002203 56 262 0.9 2.6 0.00 0.00 0.00 49 1017.3
20260504002104 56 270 0.9 5.2 0.00 0.00 0.00 48 1017.2
20260504002003 56 275 0.9 6.1 0.00 0.00 0.00 48 1017.3
20260504001903 56 277 0.9 6.1 0.00 0.00 0.00 48 1017.3
20260504001804 57 277 0.9 6.1 0.00 0.00 0.00 48 1017.2
20260504001703 57 278 0.9 6.1 0.00 0.00 0.00 49 1017.2
20260504001604 57 282 0.9 6.1 0.00 0.00 0.00 47 1017.2
20260504001504 57 283 0.9 6.1 0.00 0.00 0.00 48 1017.2
20260504001404 57 286 0.9 6.1 0.00 0.00 0.00 48 1017.2
20260504001303 57 288 0.9 6.1 0.00 0.00 0.00 45 1017.2
20260504001204 57 289 0.9 6.1 0.00 0.00 0.00 45 1017.2
20260504001104 58 290 0.9 6.1 0.00 0.00 0.00 45 1017.2
20260504000603 58 299 0.0 3.5 0.00 0.00 0.00 44 1017.2
20260504000504 58 307 0.0 3.5 0.00 0.00 0.00 44 1017.2
20260504000003 59 314 0.9 4.3 0.00 0.00 0.00 42 1017.1
20260503235704 59 298 0.9 4.3 0.00 0.00 0.00 41 1017.1
20260503235003 60 293 1.7 3.5 0.00 0.00 0.00 45 1017.2
20260503234904 60 294 1.7 3.5 0.00 0.00 0.00 41 1017.2
20260503234804 60 294 1.7 3.5 0.00 0.00 0.00 39 1017.2
20260503234704 60 298 1.7 6.1 0.00 0.00 0.00 41 1017.2
20260503234603 60 289 1.7 6.1 0.00 0.00 0.00 43 1017.3
20260503234504 60 288 2.6 6.1 0.00 0.00 0.00 43 1017.3
20260503234304 60 283 2.6 6.1 0.00 0.00 0.00 40 1017.2
20260503234204 60 284 2.6 6.1 0.00 0.00 0.00 44 1017.1
20260503234103 61 283 2.6 6.1 0.00 0.00 0.00 40 1017.2
20260503233904 61 285 2.6 6.1 0.00 0.00 0.00 43 1017.2
20260503233704 61 288 2.6 6.1 0.00 0.00 0.00 38 1017.1
20260503233604 61 293 2.6 6.1 0.00 0.00 0.00 37 1017.1
20260503233503 61 296 2.6 6.1 0.00 0.00 0.00 37 1017.1
20260503233204 61 300 1.7 6.1 0.00 0.00 0.00 39 1017.1
20260503233103 61 300 1.7 6.1 0.00 0.00 0.00 37 1017.1
20260503232803 62 301 1.7 6.1 0.00 0.00 0.00 43 1017.0
20260503232704 62 299 1.7 6.1 0.00 0.00 0.00 37 1017.0
20260503232404 62 294 1.7 6.1 0.00 0.00 0.00 38 1017.0
20260503232204 62 296 0.9 4.3 0.00 0.00 0.00 39 1017.1
20260503232103 62 297 0.9 4.3 0.00 0.00 0.00 41 1017.1
20260503232004 62 297 0.9 4.3 0.00 0.00 0.00 37 1017.1
20260503231904 62 296 0.9 4.3 0.00 0.00 0.00 39 1017.1
20260503231703 62 292 0.9 4.3 0.00 0.00 0.00 47 1017.2
20260503231504 63 291 0.9 4.3 0.00 0.00 0.00 39 1017.2
20260503231404 63 291 0.9 4.3 0.00 0.00 0.00 38 1017.1
20260503231304 63 291 0.9 3.5 0.00 0.00 0.00 39 1017.1
20260503231203 63 292 0.9 3.5 0.00 0.00 0.00 38 1017.1
20260503231104 63 292 0.9 3.5 0.00 0.00 0.00 42 1017.0
20260503230204 63 310 1.7 7.8 0.00 0.00 0.00 42 1017.1
20260503230004 63 298 1.7 7.8 0.00 0.00 0.00 46 1017.1
20260503225904 63 295 1.7 7.8 0.00 0.00 0.00 39 1017.1
20260503225604 64 298 1.7 7.8 0.00 0.00 0.00 38 1017.1
20260503225503 64 296 1.7 7.8 0.00 0.00 0.00 41 1017.1
20260503225204 64 286 1.7 6.1 0.00 0.00 0.00 39 1017.1
20260503224803 64 308 2.6 6.1 0.00 0.00 0.00 47 1017.1
20260503224603 64 303 2.6 7.0 0.00 0.00 0.00 37 1017.1
20260503224503 64 306 2.6 7.0 0.00 0.00 0.00 37 1017.1
20260503224404 64 306 2.6 7.0 0.00 0.00 0.00 38 1017.1
20260503224303 64 307 2.6 7.8 0.00 0.00 0.00 42 1017.0
20260503224103 64 302 1.7 7.8 0.00 0.00 0.00 38 1017.1
20260503224003 64 298 1.7 7.8 0.00 0.00 0.00 41 1017.1
20260503223803 65 292 1.7 7.8 0.00 0.00 0.00 38 1017.0
20260503223503 65 293 1.7 7.8 0.00 0.00 0.00 37 1017.0
20260503223403 65 295 1.7 7.8 0.00 0.00 0.00 35 1017.0
20260503223304 65 295 1.7 6.1 0.00 0.00 0.00 35 1017.0
20260503223203 65 297 1.7 6.1 0.00 0.00 0.00 35 1017.0
20260503223104 65 299 1.7 6.1 0.00 0.00 0.00 34 1017.0
20260503222903 65 298 1.7 6.1 0.00 0.00 0.00 39 1017.0
20260503222804 65 303 1.7 6.1 0.00 0.00 0.00 37 1017.0
20260503222504 65 303 1.7 6.1 0.00 0.00 0.00 37 1017.0
20260503222404 65 298 1.7 6.1 0.00 0.00 0.00 39 1017.0
20260503222304 65 299 1.7 5.2 0.00 0.00 0.00 37 1017.0
20260503222003 65 303 2.6 5.2 0.00 0.00 0.00 42 1017.1
20260503221904 64 305 2.6 5.2 0.00 0.00 0.00 35 1017.0
20260503221704 65 312 2.6 6.1 0.00 0.00 0.00 38 1017.0
20260503221503 65 320 2.6 7.0 0.00 0.00 0.00 39 1017.0
20260503221103 64 316 3.5 8.7 0.00 0.00 0.00 40 1017.0
20260503220903 64 310 3.5 8.7 0.00 0.00 0.00 33 1017.0
20260503220603 65 301 3.5 8.7 0.00 0.00 0.00 36 1017.2
20260503220503 65 303 3.5 11.3 0.00 0.00 0.00 34 1017.2
20260503220204 65 307 3.5 11.3 0.00 0.00 0.00 37 1017.2
20260503220004 65 310 3.5 11.3 0.00 0.00 0.00 34 1017.2
20260503215803 65 315 3.5 11.3 0.00 0.00 0.00 37 1017.3
20260503215603 65 321 3.5 11.3 0.00 0.00 0.00 32 1017.2
20260503215404 65 324 3.5 7.8 0.00 0.00 0.00 34 1017.2
20260503215304 65 327 3.5 7.8 0.00 0.00 0.00 36 1017.3
20260503215104 64 332 3.5 7.8 0.00 0.00 0.00 33 1017.2
20260503214903 64 332 3.5 7.8 0.00 0.00 0.00 35 1017.3
20260503214403 65 322 3.5 8.7 0.00 0.00 0.00 32 1017.3
20260503214303 65 320 3.5 8.7 0.00 0.00 0.00 30 1017.3
20260503214204 65 320 3.5 8.7 0.00 0.00 0.00 32 1017.3
20260503213903 65 320 4.3 8.7 0.00 0.00 0.00 33 1017.3
20260503213803 65 317 4.3 8.7 0.00 0.00 0.00 35 1017.3
20260503213704 65 314 4.3 8.7 0.00 0.00 0.00 36 1017.3
20260503213603 65 318 4.3 8.7 0.00 0.00 0.00 33 1017.3
20260503213404 64 312 4.3 13.0 0.00 0.00 0.00 34 1017.3
20260503213204 65 313 4.3 13.0 0.00 0.00 0.00 31 1017.3
20260503212904 65 312 4.3 13.0 0.00 0.00 0.00 33 1017.3
20260503212704 65 317 4.3 13.0 0.00 0.00 0.00 30 1017.3
20260503212003 65 309 4.3 11.3 0.00 0.00 0.00 32 1017.3
20260503211903 65 310 5.2 11.3 0.00 0.00 0.00 34 1017.4
20260503211804 65 306 5.2 11.3 0.00 0.00 0.00 33 1017.4
20260503211703 65 306 5.2 11.3 0.00 0.00 0.00 35 1017.4
20260503211604 65 306 5.2 11.3 0.00 0.00 0.00 33 1017.4
20260503211304 65 311 5.2 11.3 0.00 0.00 0.00 33 1017.5
20260503211003 65 302 5.2 10.4 0.00 0.00 0.00 34 1017.5
20260503210704 65 294 5.2 11.3 0.00 0.00 0.00 32 1017.5
20260503210503 65 292 4.3 11.3 0.00 0.00 0.00 34 1017.6
20260503210404 65 290 4.3 11.3 0.00 0.00 0.00 31 1017.6
20260503210204 65 295 3.5 11.3 0.00 0.00 0.00 31 1017.6
20260503210103 65 297 3.5 11.3 0.00 0.00 0.00 30 1017.6
20260503205904 65 305 3.5 11.3 0.00 0.00 0.00 31 1017.6
20260503205604 65 317 3.5 9.6 0.00 0.00 0.00 30 1017.7
20260503205503 65 316 3.5 9.6 0.00 0.00 0.00 30 1017.6
20260503205004 65 313 4.3 9.6 0.00 0.00 0.00 32 1017.7
20260503204903 65 315 4.3 9.6 0.00 0.00 0.00 34 1017.8
20260503204704 65 316 4.3 9.6 0.00 0.00 0.00 34 1017.7
20260503204503 65 316 4.3 9.6 0.00 0.00 0.00 29 1017.7
20260503204403 65 316 4.3 9.6 0.00 0.00 0.00 35 1017.8
20260503204303 64 316 3.5 9.6 0.00 0.00 0.00 32 1017.7
20260503204203 64 317 3.5 9.6 0.00 0.00 0.00 31 1017.6
20260503204103 64 319 3.5 9.6 0.00 0.00 0.00 31 1017.7
20260503204004 64 317 3.5 9.6 0.00 0.00 0.00 29 1017.7
20260503203704 65 313 2.6 9.6 0.00 0.00 0.00 29 1017.7
20260503203303 65 305 2.6 7.0 0.00 0.00 0.00 34 1017.9
20260503203203 65 303 2.6 7.0 0.00 0.00 0.00 33 1017.9
20260503202903 65 279 2.6 7.0 0.00 0.00 0.00 28 1017.8
20260503202704 66 267 2.6 7.8 0.00 0.00 0.00 31 1017.8
20260503202604 66 266 2.6 7.8 0.00 0.00 0.00 34 1017.9
20260503202404 66 260 2.6 7.8 0.00 0.00 0.00 36 1018.0
20260503202304 66 260 2.6 7.8 0.00 0.00 0.00 36 1018.0
20260503202203 66 260 2.6 7.8 0.00 0.00 0.00 30 1018.0
20260503202104 66 266 2.6 7.8 0.00 0.00 0.00 31 1018.0
20260503201904 66 280 2.6 7.8 0.00 0.00 0.00 31 1018.1
20260503201803 66 286 1.7 8.7 0.00 0.00 0.00 32 1018.1
20260503201703 66 286 1.7 8.7 0.00 0.00 0.00 28 1018.0
20260503201503 66 270 2.6 8.7 0.00 0.00 0.00 35 1018.1
20260503201404 66 270 2.6 8.7 0.00 0.00 0.00 35 1018.1
20260503201103 66 264 2.6 8.7 0.00 0.00 0.00 38 1018.1
20260503201004 66 263 2.6 8.7 0.00 0.00 0.00 27 1018.1
20260503200903 67 269 2.6 8.7 0.00 0.00 0.00 33 1018.2
20260503200604 66 272 2.6 8.7 0.00 0.00 0.00 36 1018.3
20260503200403 66 283 2.6 8.7 0.00 0.00 0.00 34 1018.2
20260503200204 66 287 2.6 8.7 0.00 0.00 0.00 44 1018.3
20260503200004 65 292 2.6 8.7 0.00 0.00 0.00 34 1018.2
20260503195903 66 294 2.6 8.7 0.00 0.00 0.00 32 1018.3
20260503195803 66 293 1.7 8.7 0.00 0.00 0.00 36 1018.3
20260503195704 66 296 1.7 8.7 0.00 0.00 0.00 40 1018.3
20260503195604 66 299 1.7 8.7 0.00 0.00 0.00 44 1018.3
20260503195503 66 300 1.7 8.7 0.00 0.00 0.00 38 1018.2
20260503195304 66 294 1.7 8.7 0.00 0.00 0.00 41 1018.4
20260503195104 66 295 1.7 8.7 0.00 0.00 0.00 39 1018.4
20260503195005 66 287 1.7 8.7 0.00 0.00 0.00 41 1018.5
20260503194903 66 277 1.7 8.7 0.00 0.00 0.00 40 1018.5
20260503194804 66 276 1.7 7.0 0.00 0.00 0.00 41 1018.5
20260503194303 66 293 2.6 9.6 0.00 0.00 0.00 49 1018.7
20260503194203 65 294 2.6 9.6 0.00 0.00 0.00 48 1018.7
20260503194104 65 294 1.7 9.6 0.00 0.00 0.00 44 1018.7
20260503194004 65 292 1.7 9.6 0.00 0.00 0.00 39 1018.6
20260503193804 64 285 1.7 9.6 0.00 0.00 0.00 34 1018.6
20260503193704 65 284 1.7 9.6 0.00 0.00 0.00 35 1018.7
20260503193503 65 288 1.7 9.6 0.00 0.00 0.00 32 1018.6
20260503193404 66 287 1.7 9.6 0.00 0.00 0.00 36 1018.8
20260503193204 66 263 1.7 7.0 0.00 0.00 0.00 43 1018.8
20260503193103 66 260 1.7 7.0 0.00 0.00 0.00 39 1018.7
20260503192903 66 249 1.7 7.0 0.00 0.00 0.00 44 1018.8
20260503192803 66 219 0.9 7.0 0.00 0.00 0.00 38 1018.7
20260503192704 66 214 0.9 7.0 0.00 0.00 0.00 37 1018.7
20260503192604 66 186 0.9 7.0 0.00 0.00 0.00 43 1018.8
20260503192503 66 186 0.9 7.0 0.00 0.00 0.00 40 1018.8
20260503192104 65 297 0.9 7.0 0.00 0.00 0.00 37 1018.8
20260503192004 65 298 0.9 7.0 0.00 0.00 0.00 35 1018.8
20260503191803 65 300 0.9 7.0 0.00 0.00 0.00 39 1018.9
20260503191603 65 300 0.9 7.0 0.00 0.00 0.00 38 1018.9
20260503191104 65 306 1.7 6.1 0.00 0.00 0.00 37 1019.0
20260503190903 64 301 1.7 7.0 0.00 0.00 0.00 43 1019.1
20260503190803 64 303 1.7 7.0 0.00 0.00 0.00 43 1019.1
20260503190704 64 305 1.7 7.0 0.00 0.00 0.00 51 1019.2
20260503190604 64 297 1.7 7.8 0.00 0.00 0.00 46 1019.1
20260503190504 64 295 1.7 7.8 0.00 0.00 0.00 48 1019.2
20260503190204 63 285 1.7 7.8 0.00 0.00 0.00 42 1019.0
20260503190104 63 283 2.6 7.8 0.00 0.00 0.00 45 1019.1
20260503185804 63 268 2.6 7.8 0.00 0.00 0.00 40 1019.1
20260503185604 63 261 1.7 6.1 0.00 0.00 0.00 47 1019.0
20260503185504 63 260 1.7 6.1 0.00 0.00 0.00 40 1019.1
20260503185403 63 260 1.7 6.1 0.00 0.00 0.00 39 1019.1
20260503185204 64 270 1.7 7.0 0.00 0.00 0.00 46 1019.2
20260503184903 63 274 1.7 7.0 0.00 0.00 0.00 46 1019.1
20260503184803 63 281 1.7 7.0 0.00 0.00 0.00 44 1019.1
20260503184504 62 286 1.7 7.0 0.00 0.00 0.00 51 1019.2
20260503184404 62 285 1.7 7.0 0.00 0.00 0.00 45 1019.2
20260503184304 62 289 1.7 7.0 0.00 0.00 0.00 44 1019.2
20260503184004 62 261 2.6 6.1 0.00 0.00 0.00 49 1019.2
20260503183904 62 211 2.6 7.8 0.00 0.00 0.00 45 1019.2
20260503183804 63 212 2.6 7.8 0.00 0.00 0.00 44 1019.2
20260503183704 63 219 2.6 7.8 0.00 0.00 0.00 48 1019.2
20260503183604 63 230 2.6 7.8 0.00 0.00 0.00 41 1019.2
20260503183404 63 230 1.7 7.8 0.00 0.00 0.00 49 1019.2
20260503183004 62 242 1.7 7.8 0.00 0.00 0.00 48 1019.2
20260503182704 62 243 1.7 7.0 0.00 0.00 0.00 46 1019.1
20260503182603 62 224 1.7 7.0 0.00 0.00 0.00 47 1019.2
20260503182504 62 214 1.7 5.2 0.00 0.00 0.00 48 1019.3
20260503182403 62 213 2.6 5.2 0.00 0.00 0.00 52 1019.3
20260503182305 62 219 2.6 7.8 0.00 0.00 0.00 45 1019.2
20260503182005 62 219 2.6 7.8 0.00 0.00 0.00 47 1019.3
20260503181204 62 279 1.7 9.6 0.00 0.00 0.00 49 1019.5
20260503181004 62 301 1.7 9.6 0.00 0.00 0.00 50 1019.4
20260503180903 62 320 1.7 7.0 0.00 0.00 0.00 48 1019.5
20260503180704 62 299 2.6 7.0 0.00 0.00 0.00 50 1019.4
20260503180603 62 290 2.6 7.8 0.00 0.00 0.00 53 1019.5
20260503180203 62 272 2.6 7.8 0.00 0.00 0.00 50 1019.5
20260503175903 60 277 2.6 10.4 0.00 0.00 0.00 52 1019.5
20260503175704 60 283 2.6 10.4 0.00 0.00 0.00 48 1019.5
20260503175503 60 285 2.6 10.4 0.00 0.00 0.00 51 1019.5
20260503175204 60 288 1.7 10.4 0.00 0.00 0.00 51 1019.5
20260503175103 60 287 1.7 10.4 0.00 0.00 0.00 49 1019.5
20260503174904 61 281 1.7 10.4 0.00 0.00 0.00 49 1019.4
20260503174804 61 278 1.7 10.4 0.00 0.00 0.00 53 1019.4
20260503174503 61 271 1.7 7.0 0.00 0.00 0.00 53 1019.5
20260503174403 60 272 1.7 6.1 0.00 0.00 0.00 56 1019.5
20260503174103 60 295 1.7 6.1 0.00 0.00 0.00 52 1019.5
20260503173903 60 300 1.7 6.1 0.00 0.00 0.00 52 1019.5
20260503173703 60 322 1.7 6.1 0.00 0.00 0.00 49 1019.6
20260503173604 60 314 1.7 6.1 0.00 0.00 0.00 49 1019.6
20260503173504 60 291 1.7 6.1 0.00 0.00 0.00 51 1019.7
20260503173303 60 273 1.7 3.5 0.00 0.00 0.00 54 1019.7
20260503173104 61 268 2.6 5.2 0.00 0.00 0.00 58 1019.9
20260503173003 61 274 2.6 5.2 0.00 0.00 0.00 59 1019.9
20260503172803 60 283 2.6 7.0 0.00 0.00 0.00 59 1019.9
20260503172504 59 290 2.6 11.3 0.00 0.00 0.00 53 1019.8
20260503172404 59 292 2.6 11.3 0.00 0.00 0.00 55 1019.9
20260503172103 59 301 2.6 11.3 0.00 0.00 0.00 50 1019.9
20260503171903 60 296 2.6 11.3 0.00 0.00 0.00 55 1019.9
20260503171604 60 296 1.7 9.6 0.00 0.00 0.00 52 1019.9
20260503171503 60 293 1.7 9.6 0.00 0.00 0.00 52 1020.0
20260503171203 59 292 1.7 9.6 0.00 0.00 0.00 56 1019.9
20260503171104 59 292 1.7 9.6 0.00 0.00 0.00 53 1020.0
20260503171004 59 290 1.7 7.8 0.00 0.00 0.00 52 1020.0
20260503170804 60 301 1.7 7.8 0.00 0.00 0.00 50 1020.0
20260503170703 60 297 1.7 7.8 0.00 0.00 0.00 51 1020.1
20260503170604 60 304 1.7 7.8 0.00 0.00 0.00 53 1020.0
20260503170503 60 317 1.7 7.8 0.00 0.00 0.00 53 1020.0
20260503170403 60 4 1.7 4.3 0.00 0.00 0.00 59 1020.1
20260503170303 60 32 1.7 4.3 0.00 0.00 0.00 56 1020.1
20260503160203 56 97 1.7 6.1 0.00 0.00 0.00 61 1020.4
20260503150803 54 227 0.9 6.1 0.00 0.00 0.00 63 1020.7
20260503150704 54 230 0.9 6.1 0.00 0.00 0.00 64 1020.7
20260503150404 54 260 1.7 7.8 0.00 0.00 0.00 64 1020.6
20260503140104 50 270 0.0 2.6 0.00 0.00 0.00 66 1020.5
20260503131304 45 0 0.0 0.0 0.00 0.00 0.00 82 1020.6
20260503131203 45 0 0.0 0.0 0.00 0.00 0.00 84 1020.6
20260503130904 44 0 0.0 0.0 0.00 0.00 0.00 84 1020.6
20260503130703 44 0 0.0 0.0 0.00 0.00 0.00 84 1020.6
20260503130304 43 0 0.0 0.0 0.00 0.00 0.00 85 1020.5
20260503130204 43 0 0.0 0.0 0.00 0.00 0.00 85 1020.5
20260503110803 38 0 0.0 0.0 0.00 0.00 0.00 90 1019.2
20260503110704 38 0 0.0 0.0 0.00 0.00 0.00 89 1019.2
20260503110603 38 0 0.0 0.0 0.00 0.00 0.00 90 1019.2
20260503110504 38 0 0.0 0.0 0.00 0.00 0.00 90 1019.1
20260503100204 39 0 0.0 0.0 0.00 0.00 0.00 88 1018.5
20260503090405 39 0 0.0 0.0 0.00 0.00 0.00 87 1018.1
20260503090105 39 0 0.0 0.0 0.00 0.00 0.00 87 1018.1
20260503081104 40 0 0.0 0.0 0.00 0.00 0.00 86 1017.5
20260503080904 40 0 0.0 0.0 0.00 0.00 0.00 86 1017.5
20260503080705 40 0 0.0 0.0 0.00 0.00 0.00 86 1017.5
20260503080604 40 0 0.0 0.0 0.00 0.00 0.00 86 1017.5
20260503080505 40 0 0.0 0.0 0.00 0.00 0.00 86 1017.5
20260503080405 40 0 0.0 0.0 0.00 0.00 0.00 86 1017.5
20260503080305 40 0 0.0 0.0 0.00 0.00 0.00 86 1017.5
20260503072904 41 0 0.0 0.0 0.00 0.00 0.00 83 1017.5
20260503072805 41 0 0.0 0.0 0.00 0.00 0.00 83 1017.5
20260503072105 42 0 0.0 0.0 0.00 0.00 0.00 81 1017.3
20260503072004 41 0 0.0 0.0 0.00 0.00 0.00 81 1017.3
20260503071604 41 0 0.0 0.0 0.00 0.00 0.00 84 1017.3
20260503071304 41 0 0.0 0.0 0.00 0.00 0.00 83 1017.2
20260503071204 41 0 0.0 0.0 0.00 0.00 0.00 84 1017.2
20260503071104 41 0 0.0 0.0 0.00 0.00 0.00 84 1017.2
20260503070805 41 0 0.0 0.0 0.00 0.00 0.00 85 1017.1
20260503070704 41 0 0.0 0.0 0.00 0.00 0.00 84 1017.1
20260503070204 41 0 0.0 0.0 0.00 0.00 0.00 83 1017.1
20260503060205 43 0 0.0 0.0 0.00 0.00 0.00 77 1017.1
20260503055104 43 0 0.0 0.0 0.00 0.00 0.00 76 1017.1
20260503054904 44 0 0.0 0.0 0.00 0.00 0.00 76 1017.1
20260503054804 44 0 0.0 0.0 0.00 0.00 0.00 77 1017.1
20260503054605 43 0 0.0 0.0 0.00 0.00 0.00 76 1017.1
20260503054404 43 0 0.0 0.0 0.00 0.00 0.00 77 1017.2
20260503054304 43 0 0.0 0.0 0.00 0.00 0.00 76 1017.1
20260503053905 44 0 0.0 0.0 0.00 0.00 0.00 74 1017.1
20260503053804 44 0 0.0 0.0 0.00 0.00 0.00 74 1017.1
20260503053705 44 0 0.0 0.0 0.00 0.00 0.00 74 1017.2
20260503053504 45 0 0.0 0.0 0.00 0.00 0.00 73 1017.1
20260503053405 45 0 0.0 0.0 0.00 0.00 0.00 73 1017.1
20260503053204 45 0 0.0 0.0 0.00 0.00 0.00 73 1017.1
20260503053105 45 0 0.0 0.0 0.00 0.00 0.00 72 1017.1
20260503052805 45 0 0.0 0.0 0.00 0.00 0.00 72 1017.1
20260503052704 45 0 0.0 0.0 0.00 0.00 0.00 72 1017.1
20260503052505 45 0 0.0 0.0 0.00 0.00 0.00 71 1017.1
20260503052205 45 0 0.0 0.0 0.00 0.00 0.00 70 1017.2
20260503052104 46 0 0.0 0.0 0.00 0.00 0.00 71 1017.2
20260503051805 46 0 0.0 0.0 0.00 0.00 0.00 69 1017.1
20260503051505 46 0 0.0 0.0 0.00 0.00 0.00 71 1017.2
20260503051404 46 0 0.0 0.0 0.00 0.00 0.00 72 1017.2
20260503051104 45 0 0.0 0.0 0.00 0.00 0.00 71 1017.2
20260503051004 45 0 0.0 0.0 0.00 0.00 0.00 71 1017.2
20260503050905 45 0 0.0 0.0 0.00 0.00 0.00 73 1017.1
20260503050704 44 0 0.0 0.0 0.00 0.00 0.00 75 1017.2
20260503050605 44 0 0.0 0.0 0.00 0.00 0.00 75 1017.2
20260503050504 45 0 0.0 0.0 0.00 0.00 0.00 76 1017.2
20260503050205 44 0 0.0 0.0 0.00 0.00 0.00 77 1017.2
20260503045804 44 0 0.0 0.0 0.00 0.00 0.00 75 1017.2
20260503045605 44 0 0.0 0.0 0.00 0.00 0.00 75 1017.3
20260503045504 44 0 0.0 0.0 0.00 0.00 0.00 75 1017.3
20260503045405 44 0 0.0 0.0 0.00 0.00 0.00 76 1017.4
20260503045204 44 0 0.0 0.0 0.00 0.00 0.00 76 1017.3
20260503045005 44 0 0.0 0.0 0.00 0.00 0.00 75 1017.3
20260503044604 44 0 0.0 0.0 0.00 0.00 0.00 75 1017.3
20260503044505 44 0 0.0 0.0 0.00 0.00 0.00 74 1017.3
20260503044405 44 0 0.0 0.0 0.00 0.00 0.00 75 1017.3
20260503044204 44 0 0.0 0.0 0.00 0.00 0.00 74 1017.3
20260503044105 44 0 0.0 0.0 0.00 0.00 0.00 73 1017.2
20260503044004 44 0 0.0 0.0 0.00 0.00 0.00 73 1017.2
20260503043704 45 0 0.0 0.0 0.00 0.00 0.00 72 1017.2
20260503043604 45 0 0.0 0.0 0.00 0.00 0.00 72 1017.2
20260503043105 45 0 0.0 0.0 0.00 0.00 0.00 73 1017.2
20260503042805 45 0 0.0 0.0 0.00 0.00 0.00 72 1017.2
20260503042705 45 0 0.0 0.0 0.00 0.00 0.00 72 1017.2
20260503042605 45 0 0.0 0.0 0.00 0.00 0.00 73 1017.2
20260503042505 45 0 0.0 0.0 0.00 0.00 0.00 75 1017.2
20260503042404 45 0 0.0 0.0 0.00 0.00 0.00 75 1017.1
20260503042305 45 0 0.0 0.0 0.00 0.00 0.00 74 1017.1
20260503042104 45 0 0.0 0.0 0.00 0.00 0.00 72 1017.1
20260503042004 45 0 0.0 0.0 0.00 0.00 0.00 72 1017.1
20260503041804 45 0 0.0 0.0 0.00 0.00 0.00 73 1017.2
20260503041404 46 0 0.0 0.0 0.00 0.00 0.00 74 1017.1
20260503041005 46 0 0.0 0.0 0.00 0.00 0.00 73 1017.0
20260503040904 46 0 0.0 0.0 0.00 0.00 0.00 71 1017.0
20260503040404 46 0 0.0 0.0 0.00 0.00 0.00 75 1016.9
20260503040305 46 0 0.0 0.0 0.00 0.00 0.00 77 1016.9
20260503040104 46 0 0.0 0.0 0.00 0.00 0.00 74 1016.9
20260503035604 46 0 0.0 0.0 0.00 0.00 0.00 71 1017.0
20260503035505 46 0 0.0 0.0 0.00 0.00 0.00 71 1016.9
20260503035404 46 0 0.0 0.0 0.00 0.00 0.00 72 1016.9
20260503035104 46 0 0.0 0.0 0.00 0.00 0.00 74 1016.8
20260503035005 47 0 0.0 0.0 0.00 0.00 0.00 69 1016.8